This is the latest recevied weather packets stored in our database for station/object DK9XR-14. If no packets are shown the sender has not sent any weather packets the latest 10 day(s).
| Time | Temp. | Humidity | Pressure | Rain* | Wind** | Luminosity | Snow |
|---|---|---|---|---|---|---|---|
| 1777666044 | 15° C | 44% | 1026 hPa | 0 mm | - | - | - |
| 1777665747 | 15° C | 44% | 1025.9 hPa | 0 mm | - | - | - |
| 1777665444 | 15.56° C | 43% | 1025.9 hPa | 0 mm | - | - | - |
| 1777665142 | 15.56° C | 43% | 1025.8 hPa | 0 mm | - | - | - |
| 1777664841 | 15.56° C | 43% | 1025.8 hPa | 0 mm | - | - | - |
| 1777664536 | 15.56° C | 42% | 1025.8 hPa | 0 mm | - | - | - |
| 1777664235 | 15.56° C | 42% | 1025.7 hPa | 0 mm | - | - | - |
| 1777663937 | 16.11° C | 41% | 1025.7 hPa | 0 mm | - | - | - |
| 1777663636 | 16.11° C | 41% | 1025.7 hPa | 0 mm | - | - | - |
| 1777663337 | 16.11° C | 42% | 1025.7 hPa | 0 mm | - | - | - |
| 1777663035 | 16.11° C | 41% | 1025.7 hPa | 0 mm | - | - | - |
| 1777662733 | 16.11° C | 41% | 1025.7 hPa | 0 mm | - | - | - |
| 1777662435 | 16.67° C | 40% | 1025.6 hPa | 0 mm | - | - | - |
| 1777662132 | 16.67° C | 40% | 1025.6 hPa | 0 mm | - | - | - |
| 1777661833 | 16.67° C | 40% | 1025.6 hPa | 0 mm | - | - | - |
| 1777661533 | 16.67° C | 40% | 1025.5 hPa | 0 mm | - | - | - |
| 1777661231 | 17.22° C | 40% | 1025.5 hPa | 0 mm | - | - | - |
| 1777660931 | 17.22° C | 39% | 1025.5 hPa | 0 mm | - | - | - |
| 1777660631 | 17.22° C | 38% | 1025.5 hPa | 0 mm | - | - | - |
| 1777660326 | 17.78° C | 38% | 1025.3 hPa | 0 mm | - | - | - |
| 1777660027 | 17.78° C | 37% | 1025.4 hPa | 0 mm | - | - | - |
| 1777659725 | 18.33° C | 36% | 1025.4 hPa | 0 mm | - | - | - |
| 1777659426 | 18.33° C | 36% | 1025.5 hPa | 0 mm | - | - | - |
| 1777659128 | 18.89° C | 35% | 1025.4 hPa | 0 mm | - | - | - |
| 1777658827 | 19.44° C | 34% | 1025.4 hPa | 0 mm | - | - | - |
* Rain latest hour (hover to see other rain measurements)
** Current wind speed in m/s (hover to see current wind gust speed)